This demonstration page uses our WeatherBlox Daily Observations layout. Learn more.

Left ArrowRight Arrow

39.51506, -84.39828

Hourly Observations for December 1, 2015

Temp ( °F °C ) Dew Point ( °F °C ) Humidity (%) Winds ( mph kmh ) Pressure ( in mb ) Visibility ( mi km ) Precip ( " mm )
12:15 am 00:15 Cloudy with Mist and Fog 47 8.2 44 6.6 90 90 E 8 13 29.97 1015 3 4 N/A
12:35 am 00:35 Cloudy with Light Snow 47 8.2 44 6.6 90 90 N N/A 30.00 1016 2 3 N/A
12:55 am 00:55 Cloudy with Mist and Fog 47 8.6 45 7 90 90 N N/A 29.97 1015 3 5 N/A
1:15 am 01:15 Cloudy with Mist and Fog 49 9.6 46 8 90 90 ENE 6 9 29.94 1014 2 3 N/A
1:35 am 01:35 Cloudy with Mist and Fog 49 9.6 46 8 90 90 NNE 6 9 29.94 1014 3 5 N/A
1:55 am 01:55 Cloudy with Mist and Fog 49 9.6 46 8 90 90 N N/A 29.94 1014 4 6 N/A
2:15 am 02:15 Cloudy with Mist and Fog 49 9.6 46 8 90 90 N N/A 29.94 1014 4 6 N/A
2:35 am 02:35 Cloudy with Mist and Fog 49 9.6 46 8 90 90 ENE 3 6 29.91 1013 2 2 N/A
2:55 am 02:55 Cloudy with Mist and Fog 49 9.6 46 8 90 90 N N/A 29.91 1013 2 3 N/A
3:15 am 03:15 Cloudy with Mist and Fog 49 9.6 46 8 90 90 N N/A 29.91 1013 2 2 N/A
3:35 am 03:35 Cloudy with Mist and Fog 49 9.6 46 8 90 90 N N/A 29.91 1013 2 3 N/A
3:55 am 03:55 Cloudy with Mist and Fog 49 9.6 46 8 90 90 N N/A 29.91 1013 1 2 N/A
4:15 am 04:15 Cloudy with Mist and Fog 49 9.6 46 8 90 90 N N/A 29.91 1013 2 3 N/A
4:35 am 04:35 Cloudy with Light Snow 49 9.6 47 8.1 90 90 N N/A 29.91 1013 2 2 N/A
4:55 am 04:55 Cloudy with Mist and Fog 49 9.6 47 8.1 90 90 N N/A 29.88 1012 3 4 N/A
5:15 am 05:15 Cloudy with Snow 49 9.6 47 8.1 90 90 N N/A 29.88 1012 3 5 N/A
5:35 am 05:35 Cloudy with Drizzle 49 9.6 47 8.2 91 91 N N/A 29.85 1011 5 8 N/A
5:55 am 05:55 Cloudy with Light Rain 49 9.7 47 8.3 91 91 SSE 3 6 29.85 1011 7 11 N/A
6:15 am 06:15 Cloudy with Rain 51 10.3 48 8.9 91 91 N N/A 29.88 1012 5 8 N/A
6:35 am 06:35 Cloudy with Mist and Fog 52 11 49 9.6 91 91 N N/A 29.88 1012 5 8 N/A
6:55 am 06:55 Cloudy with Mist and Fog 52 11 49 9.5 91 91 N N/A 29.88 1012 4 6 N/A
7:15 am 07:15 Cloudy with Mist and Fog 52 11 49 9.4 90 90 N N/A 29.88 1012 4 6 N/A
7:35 am 07:35 Cloudy with Mist and Fog 52 11 49 9.5 91 91 N N/A 29.88 1012 3 5 N/A
7:55 am 07:55 Cloudy with Mist and Fog 52 11 49 9.5 91 91 N N/A 29.88 1012 2 3 N/A
8:15 am 08:15 Cloudy with Mist and Fog 52 11 49 9.6 91 91 N N/A 29.88 1012 2 3 N/A
8:35 am 08:35 Cloudy with Mist and Fog 55 12.5 52 11 91 91 N N/A 29.88 1012 1 1 N/A
8:55 am 08:55 Cloudy with Mist and Fog 54 12.2 51 10.8 91 91 N N/A 29.88 1012 1 2 N/A
9:15 am 09:15 Cloudy with Mist and Fog 55 12.5 52 11 91 91 N N/A 29.88 1012 2 2 N/A
9:35 am 09:35 Cloudy with Mist and Fog 55 12.5 52 11 91 91 N N/A 29.88 1012 3 5 N/A
9:55 am 09:55 Cloudy with Mist and Fog 55 12.5 52 11 91 91 N N/A 29.91 1013 4 6 N/A
10:15 am 10:15 Cloudy with Drizzle 55 12.5 52 11 91 91 WSW 3 6 29.88 1012 4 6 N/A
10:35 am 10:35 Cloudy with Drizzle 55 12.5 52 10.9 90 90 W 6 9 29.91 1013 7 11 N/A
10:55 am 10:55 Cloudy 55 12.5 51 10.7 89 89 WSW 7 11 29.91 1013 10 16 N/A
11:15 am 11:15 Cloudy 55 12.5 51 10.3 87 87 W 7 11 29.91 1013 10 16 N/A
11:35 am 11:35 Cloudy 55 12.5 50 10.1 85 85 W 8 13 29.91 1013 10 16 N/A
11:55 am 11:55 Cloudy 55 12.5 50 10 85 85 W 8 13 29.91 1013 10 16 N/A
12:15 pm 12:15 Cloudy 55 12.5 50 9.8 84 84 W 10 17 29.91 1013 10 16 N/A
12:35 pm 12:35 Cloudy 55 12.5 50 10 85 85 W 6 9 29.91 1013 10 16 N/A
12:55 pm 12:55 Cloudy 55 12.5 50 10 85 85 W 7 11 29.88 1012 10 16 N/A
1:15 pm 13:15 Cloudy 55 12.5 50 10 85 85 W 8 13 29.88 1012 10 16 N/A
1:35 pm 13:35 Cloudy 55 12.5 50 10 85 85 W 6 9 29.88 1012 10 16 N/A
1:55 pm 13:55 Cloudy 55 12.5 49 9.7 83 83 W 8 13 29.88 1012 10 16 N/A
2:15 pm 14:15 Cloudy 55 12.5 49 9.3 81 81 W 6 9 29.88 1012 10 16 N/A
2:35 pm 14:35 Cloudy 55 12.5 47 8.6 77 77 WSW 7 11 29.88 1012 10 16 N/A
2:55 pm 14:55 Mostly Cloudy 55 12.5 47 8.1 75 75 W 9 15 29.88 1012 10 16 N/A
3:15 pm 15:15 Partly Cloudy 55 12.5 46 8 74 74 W 9 15 29.88 1012 10 16 N/A
3:35 pm 15:35 Sunny 55 12.5 46 7.7 73 73 W 9 15 29.88 1012 10 16 N/A
3:55 pm 15:55 Partly Cloudy 55 12.5 45 7.3 71 71 W 10 17 29.91 1013 10 16 N/A
4:15 pm 16:15 Partly Cloudy 55 12.5 46 7.5 72 72 W 9 15 29.91 1013 10 16 N/A
4:35 pm 16:35 Partly Cloudy 55 12.5 45 7.2 70 70 W 8 13 29.91 1013 10 16 N/A
4:55 pm 16:55 Mostly Cloudy 55 12.5 46 7.6 72 72 W 8 13 29.91 1013 10 16 N/A
5:15 pm 17:15 Mostly Cloudy 52 11 44 6.5 74 74 W 9 15 29.91 1013 10 16 N/A
5:35 pm 17:35 Partly Cloudy 49 9.7 41 4.9 72 72 W 7 11 29.94 1014 10 16 N/A
5:55 pm 17:55 Clear 49 9.6 42 5.4 75 75 WNW 6 9 29.94 1014 10 16 N/A
6:15 pm 18:15 Clear 49 9.6 43 6 78 78 WNW 5 7 29.94 1014 10 16 N/A
6:35 pm 18:35 Clear 47 8.2 41 5 80 80 NW 5 7 29.94 1014 10 16 N/A
6:55 pm 18:55 Clear 47 8.2 42 5.5 83 83 N N/A 29.94 1014 10 16 N/A
7:15 pm 19:15 Clear 44 6.5 40 4.4 87 87 N N/A 29.94 1014 10 16 N/A
7:35 pm 19:35 Clear 42 5.6 38 3.4 86 86 N N/A 29.94 1014 10 16 N/A
7:55 pm 19:55 Clear 42 5.7 39 3.7 87 87 N N/A 29.94 1014 10 16 N/A
8:15 pm 20:15 Clear 42 5.7 39 3.9 88 88 N N/A 29.94 1014 10 16 N/A
8:35 pm 20:35 Clear 42 5.5 38 3.6 88 88 N N/A 29.94 1014 10 16 N/A
8:55 pm 20:55 Clear 42 5.6 38 3.5 87 87 SW 3 6 29.94 1014 10 16 N/A
9:35 pm 21:35 Clear 42 5.5 38 3.5 87 87 WSW 3 6 29.97 1015 10 16 N/A
9:55 pm 21:55 Clear 41 5.2 38 3.4 88 88 N N/A 29.97 1015 10 16 N/A
10:15 pm 22:15 Clear 41 4.8 38 3.1 89 89 N N/A 29.97 1015 10 16 N/A
10:35 pm 22:35 Clear 40 4.7 38 3.1 90 90 N N/A 29.97 1015 10 16 N/A
10:55 pm 22:55 Clear 40 4.3 37 2.6 89 89 N N/A 29.97 1015 10 16 N/A
11:15 pm 23:15 Clear 40 4.2 37 2.6 89 89 N N/A 29.94 1014 10 16 N/A
11:35 pm 23:35 Clear 39 4 37 2.5 90 90 N N/A 29.94 1014 10 16 N/A
11:55 pm 23:55 Clear 39 4 37 2.5 90 90 N N/A 29.94 1014 10 16 N/A

Powered by AerisWeather